Regional Weather Roundup
Issued by NWS Sioux Falls, SD

Home | Current Version | Previous Version | Graphics & Text | Print | Product List | Glossary Off
Versions: 1 2 3 4 5 6 7 8 9 10 11 12 13 14 15 16 17 18 19 20 21 22 23 24 25 26 27 28 29 30 31 32 33 34 35 36 37 38 39 40 41 42 43 44 45 46 47 48 49 50

000
ASUS43 KFSD 220010
RWRFSD

WEATHER ROUNDUP FOR SE SOUTH DAKOTA/SW MINNESOTA/NW IOWA
NATIONAL WEATHER SERVICE SIOUX FALLS SD
600 PM CST WED FEB 21 2018

NOTE: "FAIR" INDICATES FEW OR NO CLOUDS BELOW 12,000 FEET WITH NO
SIGNIFICANT WEATHER AND OR OBSTRUCTIONS TO VISIBILITY.


SDZ038>040-050-052>070-220100-
SOUTHEAST SOUTH DAKOTA

CITY           SKY/WX    TMP DP  RH WIND       PRES   REMARKS
BROOKINGS      FAIR      14   4  64 S6        30.52S WCI   5
CHAMBERLAIN    FAIR      19   9  66 E15       30.43S WCI   5
6HR MIN TEMP:   9; 6HR MAX TEMP:  23;

HURON          FAIR      15   4  61 SE9       30.50F WCI   3
6HR MIN TEMP:  10; 6HR MAX TEMP:  18;

MADISON        FAIR      10   3  72 SE7       30.51S WCI   0
MITCHELL       FAIR      16   4  59 SE12      30.53S WCI   3
6HR MIN TEMP:  10; 6HR MAX TEMP:  19;

SIOUX FALLS    MOCLDY    15   2  56 SE6       30.55R WCI   6
6HR MIN TEMP:  11; 6HR MAX TEMP:  20;

WINNER         FAIR      21  10  62 SE12      30.38S WCI   9
YANKTON        FAIR      16   6  65 E8        30.55R WCI   5
$$

MNZ071-072-080-081-089-090-097-098-220100-
SOUTHWEST MINNESOTA

CITY           SKY/WX    TMP DP  RH WIND       PRES   REMARKS
FAIRMONT       CLOUDY    15   5  64 CALM      30.62R
JACKSON        CLOUDY    18   5  57 CALM      30.58S
LUVERNE        MOCLDY    14   5  67 CALM      30.57R
MARSHALL       FAIR      13   2  61 S5        30.58F WCI   5
6HR MIN TEMP:  13; 6HR MAX TEMP:  19;

MONTEVIDEO     FAIR      16  -2  45 CALM      30.59S
PIPESTONE      FAIR      10   1  67 CALM      30.52F
REDWOOD FALLS  FAIR      15   2  56 W5        30.61R WCI   8
TRACY          FAIR      14   6  70 CALM      30.56F
WORTHINGTON    FAIR      14   6  70 CALM      30.56S
$$

IAZ001>003-012>014-020>022-031-032-NEZ013-014-SDZ071-220100-
NORTHWEST IOWA

CITY           SKY/WX    TMP DP  RH WIND       PRES   REMARKS
CHEROKEE       FAIR      21  13  69 SE6       30.59R WCI  14
DENISON        FAIR      21  14  73 NE8       30.60R WCI  12
ESTHERVILLE    MOCLDY    16   7  67 N3        30.59R
LE MARS        FAIR      19  10  68 E5        30.58S WCI  13
ORANGE CITY    FAIR      18  10  73 CALM      30.56S
SHELDON        FAIR      16   7  67 E5        30.55S WCI   9
SIOUX CITY     FAIR      19   7  59 E3        30.58S
6HR MIN TEMP:  14; 6HR MAX TEMP:  22;

SPENCER        MIX PCPN  19  10  68 NE3       30.58S
6HR MIN TEMP:  15; 6HR MAX TEMP:  22; 6HR PCP:  0.04;

STORM LAKE     FAIR      19  12  73 SE10      30.57R WCI   8
$$

ABBREVIATIONS USED IN REMARKS
   TC - TEMPERATURE IN CELSIUS
  WCI - WIND CHILL INDEX
   HX - HEAT INDEX
  VSB - VISIBILITY





USA.gov is the U.S. government's official web portal to all federal, state and local government web resources and services.